Satellite: NO-44
Catalog number: 26931
Epoch time:      11313.55088445
Element set:    0894
Inclination:      067.0545 deg
RA of node:       328.9561 deg
Eccentricity:    0.0004884
Arg of perigee:   264.6054 deg
Mean anomaly:     095.4501 deg
Mean motion:   14.29709916 rev/day
Decay rate:       5.04e-06 rev/day^2
Epoch rev:           52770
Checksum:              322

Satellite: SO-50
Catalog number: 27607
Epoch time:      11313.81123432
Element set:    0611
Inclination:      064.5580 deg
RA of node:       245.1037 deg
Eccentricity:    0.0082878
Arg of perigee:   291.3098 deg
Mean anomaly:     067.9185 deg
Mean motion:   14.71969041 rev/day
Decay rate:      2.237e-05 rev/day^2
Epoch rev:           47752
Checksum:              309

Satellite: CO-55
Catalog number: 27844
Epoch time:      11313.59528328
Element set:     239
Inclination:      098.7071 deg
RA of node:       320.1947 deg
Eccentricity:    0.0009962
Arg of perigee:   135.4082 deg
Mean anomaly:     224.7902 deg
Mean motion:   14.20885424 rev/day
Decay rate:       4.54e-06 rev/day^2
Epoch rev:           43356
Checksum:              315

Satellite: CO-57
Catalog number: 27848
Epoch time:      11313.56158839
Element set:    0186
Inclination:      098.7134 deg
RA of node:       319.4018 deg
Eccentricity:    0.0010049
Arg of perigee:   140.5061 deg
Mean anomaly:     219.6881 deg
Mean motion:   14.20655772 rev/day
Decay rate:       3.98e-06 rev/day^2
Epoch rev:           43350
Checksum:              318

Satellite: AO-51
Catalog number: 28375
Epoch time:      11313.95036273
Element set:    0117
Inclination:      098.1166 deg
RA of node:       284.8771 deg
Eccentricity:    0.0084402
Arg of perigee:   348.9239 deg
Mean anomaly:     011.0133 deg
Mean motion:   14.40823423 rev/day
Decay rate:       4.98e-06 rev/day^2
Epoch rev:           38705
Checksum:              302

Satellite: CP3
Catalog number: 31129
Epoch time:      11313.70353869
Element set:    0016
Inclination:      097.8940 deg
RA of node:       329.4603 deg
Eccentricity:    0.0103014
Arg of perigee:   088.7607 deg
Mean anomaly:     272.5398 deg
Mean motion:   14.52667886 rev/day
Decay rate:      1.586e-05 rev/day^2
Epoch rev:           24196
Checksum:              324

Satellite: CO-65
Catalog number: 32785
Epoch time:      11313.90451367
Element set:    0148
Inclination:      097.8343 deg
RA of node:       014.8898 deg
Eccentricity:    0.0015983
Arg of perigee:   062.9087 deg
Mean anomaly:     297.3739 deg
Mean motion:   14.82331921 rev/day
Decay rate:      2.674e-05 rev/day^2
Epoch rev:           19112
Checksum:              339

Satellite: PRISM
Catalog number: 33493
Epoch time:      11314.88123807
Element set:     135
Inclination:      098.1431 deg
RA of node:       085.8481 deg
Eccentricity:    0.0018695
Arg of perigee:   287.3273 deg
Mean anomaly:     072.5943 deg
Mean motion:   14.82400666 rev/day
Decay rate:      5.781e-05 rev/day^2
Epoch rev:           15124
Checksum:              308

Satellite: SOHLA-1
Catalog number: 33496
Epoch time:      11314.90692727
Element set:     566
Inclination:      098.0917 deg
RA of node:       063.3537 deg
Eccentricity:    0.0007182
Arg of perigee:   024.6143 deg
Mean anomaly:     335.5403 deg
Mean motion:   14.69740553 rev/day
Decay rate:      1.142e-05 rev/day^2
Epoch rev:           15003
Checksum:              287

Satellite: TISAT-1
Catalog number: 36799
Epoch time:      11314.84365342
Element set:     405
Inclination:      098.0883 deg
RA of node:       024.4560 deg
Eccentricity:    0.0015567
Arg of perigee:   159.4640 deg
Mean anomaly:     200.7222 deg
Mean motion:   14.81020621 rev/day
Decay rate:      3.800e-05 rev/day^2
Epoch rev:            7201
Checksum:              269

Satellite: STUDSAT
Catalog number: 36801
Epoch time:      11313.94313819
Element set:    0311
Inclination:      098.0934 deg
RA of node:       023.5481 deg
Eccentricity:    0.0013731
Arg of perigee:   151.8656 deg
Mean anomaly:     208.3303 deg
Mean motion:   14.81788622 rev/day
Decay rate:      9.668e-05 rev/day^2
Epoch rev:           07187
Checksum:              299

Satellite: OOREOS
Catalog number: 37224
Epoch time:      11283.12196780
Element set:    0302
Inclination:      071.9656 deg
RA of node:       145.3580 deg
Eccentricity:    0.0018647
Arg of perigee:   057.9354 deg
Mean anomaly:     302.3616 deg
Mean motion:   14.77183931 rev/day
Decay rate:       9.55e-06 rev/day^2
Epoch rev:           04784
Checksum:              307

Satellite: FO-69
Catalog number: 37227
Epoch time:      11314.38646024
Element set:    0023
Inclination:      071.9708 deg
RA of node:       076.8763 deg
Eccentricity:    0.0015586
Arg of perigee:   004.7578 deg
Mean anomaly:     355.3800 deg
Mean motion:   14.76751597 rev/day
Decay rate:      1.523e-05 rev/day^2
Epoch rev:           00364
Checksum:              318

Satellite: NANOSALD
Catalog number: 37361
Epoch time:      11242.25215765
Element set:    0351
Inclination:      071.9735 deg
RA of node:       221.4469 deg
Eccentricity:    0.0025730
Arg of perigee:   245.3422 deg
Mean anomaly:     114.7284 deg
Mean motion:   15.22200108 rev/day
Decay rate:    1.80112e-03 rev/day^2
Epoch rev:           03331
Checksum:              248

